K8DJB-1 Weather Reports


time (UTC)temp
F
wind
direction
speed
knots
gust
knots
rain 1hr
in
rain 24hr
in
rain mn
in
humidity
%
barometer
mb
20260503180339 60 229 17.4 27.8 0.00 0.00 0.00 52 1010.1
20260503175839 60 227 17.4 30.4 0.00 0.00 0.00 50 1010.3
20260503175339 59 233 20.9 30.4 0.00 0.00 0.00 51 1010.2
20260503174839 60 222 17.4 30.4 0.00 0.00 0.00 49 1010.1
20260503174339 60 227 18.2 28.7 0.00 0.00 0.00 50 1010.3
20260503173839 60 243 14.8 29.5 0.00 0.00 0.00 49 1010.3
20260503173339 59 210 19.1 29.5 0.00 0.00 0.00 50 1010.3
20260503172839 59 207 20.0 27.8 0.00 0.00 0.00 49 1010.4
20260503172339 59 226 20.9 26.9 0.00 0.00 0.00 49 1010.6
20260503171839 60 239 17.4 25.2 0.00 0.00 0.00 50 1010.6
20260503171339 59 231 17.4 25.2 0.00 0.00 0.00 51 1010.7
20260503170456 59 233 14.8 22.6 0.00 0.00 0.00 53 1010.5
20260503150809 56 214 12.2 26.1 0.00 0.00 0.00 50 1011.3
20260503150309 56 222 16.5 26.1 0.00 0.00 0.00 48 1011.3
20260503140309 53 206 13.9 21.7 0.00 0.00 0.00 51 1011.9
20260503131141 52 217 10.4 18.2 0.00 0.00 0.00 55 1012.1
20260503130641 52 212 12.2 18.2 0.00 0.00 0.00 55 1012.1
20260503130141 51 215 13.0 18.2 0.00 0.00 0.00 55 1012.1
20260503120141 46 155 4.3 7.0 0.00 0.00 0.00 67 1012.0
20260503110641 44 172 5.2 7.8 0.00 0.00 0.00 67 1011.9
20260503110141 44 164 5.2 7.8 0.00 0.00 0.00 67 1011.8
20260503100141 43 191 4.3 7.0 0.00 0.00 0.00 67 1011.9
20260503090456 42 166 3.5 5.2 0.00 0.00 0.00 65 1012.2
20260503081456 41 151 3.5 6.1 0.00 0.00 0.00 63 1012.3
20260503080956 41 149 2.6 5.2 0.00 0.00 0.00 63 1012.4
20260503080456 41 147 2.6 5.2 0.00 0.00 0.00 62 1012.3
20260503072456 42 158 5.2 8.7 0.00 0.00 0.00 60 1012.7
20260503071956 42 155 5.2 8.7 0.00 0.00 0.00 61 1012.7
20260503071456 41 153 5.2 8.7 0.00 0.00 0.00 61 1012.7
20260503070956 41 155 4.3 7.8 0.00 0.00 0.00 61 1012.8
20260503070456 41 151 4.3 7.8 0.00 0.00 0.00 61 1012.8
20260503054956 41 149 2.6 3.5 0.00 0.00 0.00 58 1013.6
20260503054456 41 149 2.6 3.5 0.00 0.00 0.00 58 1013.7
20260503053956 41 149 1.7 3.5 0.00 0.00 0.00 58 1013.8
20260503053456 41 149 1.7 5.2 0.00 0.00 0.00 59 1013.9
20260503052956 41 149 2.6 5.2 0.00 0.00 0.00 57 1013.9
20260503052456 41 154 2.6 5.2 0.00 0.00 0.00 58 1013.9
20260503051956 42 155 3.5 5.2 0.00 0.00 0.00 58 1014.0
20260503051456 42 150 3.5 6.1 0.00 0.00 0.00 58 1014.0
20260503050956 42 151 2.6 7.0 0.00 0.00 0.00 58 1014.1
20260503050456 42 145 3.5 7.0 0.00 0.00 0.00 58 1014.1
20260503045956 41 140 2.6 6.1 0.00 0.00 0.00 59 1014.1
20260503045456 40 148 3.5 6.1 0.00 0.00 0.00 62 1014.2
20260503044956 39 161 1.7 3.5 0.00 0.00 0.00 66 1014.2
20260503044457 39 0 0.0 1.7 0.00 0.00 0.00 70 1014.2
20260503043956 39 0 0.0 0.0 0.00 0.00 0.00 69 1014.3
20260503043456 39 0 0.0 0.0 0.00 0.00 0.00 67 1014.4
20260503042956 39 0 0.0 0.0 0.00 0.00 0.00 67 1014.3
20260503042456 40 0 0.0 0.0 0.00 0.00 0.00 67 1014.4
20260503041956 40 0 0.0 0.0 0.00 0.00 0.00 67 1014.4
20260503041456 40 0 0.0 0.0 0.00 0.00 0.00 67 1014.5
20260503040956 40 0 0.0 0.0 0.00 0.00 0.00 66 1014.5
20260503040456 40 0 0.0 0.0 0.00 0.00 0.00 69 1014.5
20260503035956 40 0 0.0 0.0 0.00 0.00 0.00 66 1014.6
20260503035456 40 0 0.0 0.0 0.00 0.00 0.00 69 1014.8
20260503034956 40 0 0.0 0.0 0.00 0.00 0.00 68 1014.7
20260503034456 40 0 0.0 0.0 0.00 0.00 0.00 68 1014.9
20260503033956 40 0 0.0 0.0 0.00 0.00 0.00 67 1014.8
20260503033456 41 0 0.0 0.9 0.00 0.00 0.00 67 1014.9
20260503032956 41 0 0.0 1.7 0.00 0.00 0.00 68 1014.9
20260503032456 41 0 0.0 2.6 0.00 0.00 0.00 67 1014.9
20260503031956 41 192 0.9 2.6 0.00 0.00 0.00 65 1015.0
20260503031302 41 192 0.9 2.6 0.00 0.00 0.00 58 1015.0
20260503030801 41 192 0.9 2.6 0.00 0.00 0.00 61 1015.0
20260503030301 41 192 0.9 2.6 0.00 0.00 0.00 61 1015.2
20260503025801 42 0 0.0 1.7 0.00 0.00 0.00 64 1015.1
20260503025301 42 0 0.0 1.7 0.00 0.00 0.00 60 1015.1
20260503024801 42 0 0.0 1.7 0.00 0.00 0.00 57 1015.2
20260503024301 42 192 0.9 2.6 0.00 0.00 0.00 56 1015.2
20260503023801 42 192 0.9 2.6 0.00 0.00 0.00 55 1015.2
20260503023301 43 192 1.7 2.6 0.00 0.00 0.00 55 1015.3
20260503022801 43 193 1.7 3.5 0.00 0.00 0.00 57 1015.2
20260503022304 43 197 1.7 3.5 0.00 0.00 0.00 55 1015.2
20260503021801 43 222 1.7 2.6 0.00 0.00 0.00 57 1015.2
20260503021301 43 223 1.7 2.6 0.00 0.00 0.00 56 1015.3
20260503020801 43 223 0.9 2.6 0.00 0.00 0.00 57 1015.4
20260503020305 43 223 0.9 2.6 0.00 0.00 0.00 56 1015.4
20260503015801 43 223 0.9 2.6 0.00 0.00 0.00 56 1015.4
20260503015301 43 223 0.9 2.6 0.00 0.00 0.00 56 1015.4
20260503014801 43 223 0.9 2.6 0.00 0.00 0.00 57 1015.3
20260503014301 43 223 0.9 2.6 0.00 0.00 0.00 59 1015.3
20260503013801 44 223 0.9 2.6 0.00 0.00 0.00 58 1015.3
20260503013301 44 223 0.9 2.6 0.00 0.00 0.00 56 1015.2
20260503012801 44 223 0.9 2.6 0.00 0.00 0.00 54 1015.1
20260503012301 44 223 1.7 3.5 0.00 0.00 0.00 54 1015.3
20260503011801 44 223 1.7 3.5 0.00 0.00 0.00 53 1015.3
20260503011301 45 224 0.9 3.5 0.00 0.00 0.00 53 1015.3
20260503010802 45 223 1.7 3.5 0.00 0.00 0.00 54 1015.2
20260503010301 45 223 1.7 5.2 0.00 0.00 0.00 53 1015.2
20260503005801 45 221 2.6 5.2 0.00 0.00 0.00 52 1015.2
20260503005304 46 218 3.5 5.2 0.00 0.00 0.00 51 1015.3
20260503004801 46 228 2.6 4.3 0.00 0.00 0.00 51 1015.3
20260503004241 47 229 3.5 7.0 0.00 0.00 0.00 49 1015.2
20260503003741 47 227 4.3 7.0 0.00 0.00 0.00 47 1015.2
20260503003241 47 227 3.5 6.1 0.00 0.00 0.00 47 1015.3
20260503002741 48 246 1.7 7.0 0.00 0.00 0.00 45 1015.3
20260503002241 48 244 3.5 7.8 0.00 0.00 0.00 44 1015.3
20260503001741 48 243 3.5 7.8 0.00 0.00 0.00 43 1015.3
20260503001241 49 249 4.3 7.8 0.00 0.00 0.00 42 1015.3
20260503000741 49 248 3.5 8.7 0.00 0.00 0.00 41 1015.3
20260503000241 49 273 4.3 8.7 0.00 0.00 0.00 40 1015.2
20260502235741 49 264 3.5 8.7 0.00 0.00 0.00 41 1015.3
20260502235241 49 268 4.3 10.4 0.00 0.00 0.00 40 1015.3
20260502234741 49 273 4.3 11.3 0.00 0.00 0.00 43 1015.3
20260502234241 49 279 7.8 11.3 0.00 0.00 0.00 40 1015.3
20260502233406 50 273 7.0 10.4 0.00 0.00 0.00 40 1015.3
20260502232906 50 278 5.2 8.7 0.00 0.00 0.00 39 1015.3
20260502232406 50 276 6.1 11.3 0.00 0.00 0.00 37 1015.4
20260502231906 50 270 6.1 11.3 0.00 0.00 0.00 38 1015.4
20260502231406 50 272 6.1 10.4 0.00 0.00 0.00 38 1015.4
20260502230906 50 271 7.0 13.9 0.00 0.00 0.00 38 1015.4
20260502230406 50 284 8.7 13.9 0.00 0.00 0.00 37 1015.5
20260502225906 50 284 7.8 12.2 0.00 0.00 0.00 36 1015.5
20260502225406 50 281 8.7 12.2 0.00 0.00 0.00 38 1015.5
20260502224908 50 313 8.7 12.2 0.00 0.00 0.00 37 1015.7
20260502224355 50 274 7.0 11.3 0.00 0.00 0.00 36 1015.7
20260502223855 50 287 7.8 11.3 0.00 0.00 0.00 37 1015.8
20260502223355 50 269 7.0 13.0 0.00 0.00 0.00 37 1015.7
20260502222855 50 329 5.2 13.0 0.00 0.00 0.00 36 1015.7
20260502222355 50 275 7.8 12.2 0.00 0.00 0.00 37 1015.8
20260502221855 50 282 7.0 13.0 0.00 0.00 0.00 37 1015.8
20260502221355 50 314 4.3 14.8 0.00 0.00 0.00 37 1015.8
20260502220855 50 331 8.7 14.8 0.00 0.00 0.00 35 1015.8
20260502220355 50 273 7.8 13.9 0.00 0.00 0.00 36 1015.8
20260502215855 50 275 7.8 15.6 0.00 0.00 0.00 37 1015.8
20260502215355 50 264 7.0 15.6 0.00 0.00 0.00 38 1015.8
20260502214855 50 286 9.6 13.9 0.00 0.00 0.00 38 1015.8
20260502214355 50 271 7.8 14.8 0.00 0.00 0.00 37 1015.9
20260502213855 50 269 7.8 14.8 0.00 0.00 0.00 37 1015.9
20260502213355 49 296 7.0 17.4 0.00 0.00 0.00 37 1016.0
20260502212855 49 297 7.8 17.4 0.00 0.00 0.00 40 1015.9
20260502212355 49 294 10.4 16.5 0.00 0.00 0.00 39 1015.9
20260502211855 49 284 11.3 15.6 0.00 0.00 0.00 39 1015.9
20260502211355 49 265 8.7 15.6 0.00 0.00 0.00 41 1015.9
20260502210855 49 283 11.3 15.6 0.00 0.00 0.00 39 1015.9
20260502210355 49 263 7.0 14.8 0.00 0.00 0.00 39 1016.0
20260502205855 49 278 9.6 16.5 0.00 0.00 0.00 40 1016.1
20260502205355 49 270 7.8 16.5 0.00 0.00 0.00 41 1016.1
20260502204855 49 281 10.4 15.6 0.00 0.00 0.00 41 1016.1
20260502204355 49 293 7.0 16.5 0.00 0.00 0.00 45 1016.1
20260502203855 49 282 8.7 16.5 0.00 0.00 0.00 43 1016.2
20260502203355 49 274 10.4 16.5 0.00 0.00 0.00 43 1016.3
20260502202855 49 279 9.6 13.9 0.00 0.00 0.00 42 1016.3
20260502202355 49 277 7.0 17.4 0.00 0.00 0.00 42 1016.3
20260502201855 49 282 9.6 17.4 0.00 0.00 0.00 41 1016.4
20260502201355 49 270 9.6 16.5 0.00 0.00 0.00 42 1016.4
20260502200855 48 307 7.0 16.5 0.00 0.00 0.00 44 1016.5
20260502200355 48 284 9.6 18.2 0.00 0.00 0.00 44 1016.6
20260502195855 48 263 8.7 18.2 0.00 0.00 0.00 43 1016.6
20260502195318 49 294 10.4 14.8 0.00 0.00 0.00 43 1016.7
20260502194148 48 264 8.7 14.8 0.00 0.00 0.00 46 1016.9
20260502193648 48 260 8.7 13.9 0.00 0.00 0.00 44 1017.0
20260502193148 48 250 9.6 15.6 0.00 0.00 0.00 43 1017.0
20260502192648 48 278 9.6 19.1 0.00 0.00 0.00 43 1017.1
20260502192148 48 289 11.3 19.1 0.00 0.00 0.00 45 1017.0
20260502191648 48 262 10.4 15.6 0.00 0.00 0.00 43 1017.1
20260502191148 48 245 9.6 13.9 0.00 0.00 0.00 45 1017.1
20260502190648 48 268 10.4 15.6 0.00 0.00 0.00 46 1017.2
20260502190148 48 280 11.3 15.6 0.00 0.00 0.00 45 1017.3
20260502185648 48 251 7.8 14.8 0.00 0.00 0.00 44 1017.3
20260502185148 48 285 10.4 14.8 0.00 0.00 0.00 47 1017.3
20260502184648 48 292 8.7 15.6 0.00 0.00 0.00 49 1017.4
20260502184148 48 265 9.6 15.6 0.00 0.00 0.00 48 1017.4
20260502183648 48 288 6.1 20.0 0.00 0.00 0.00 49 1017.4
20260502183148 47 292 7.8 20.0 0.00 0.00 0.00 48 1017.2
20260502182125 47 259 11.3 17.4 0.00 0.00 0.00 47 1017.5
20260502181625 47 240 7.0 13.0 0.00 0.00 0.00 49 1017.4
20260502181125 48 269 8.7 14.8 0.00 0.00 0.00 50 1017.4
20260502180625 47 255 9.6 14.8 0.00 0.00 0.00 47 1017.5